sat.trackr.live / text

‹ back to catalog

STARLINK-11089 [DTC]

NORAD 59426 · 2024-065F

PAYLOAD ACTIVE UNKNOWN

§ Identity

Operator
Country
US
Launch date
2024-04-07
Launch site
AFWTR
Launch vehicle
Mass (kg)
RCS (m²)

Purposes: comms

External: N2YO · Heavens-Above · Gunter

§ Orbital elements

Epoch: 2026-05-25T02:42:49.728384Z

Period
91.74 min
Inclination
53.1590°
Eccentricity
0.0000711
Mean motion
15.69709134 rev/d
Perigee alt
359.3 km
Apogee alt
360.2 km
Semi-major
6,737.9 km
B*
1.8813e-5
RAAN
77.3509°
Arg perigee
106.8783°
Mean anomaly
253.2313°
Rev number
12,352

§ Raw data

STARLINK-11089 [DTC]1 59426U 24065F   26145.11307556  .00001692  00000+0  18813-4 0  99912 59426  53.1590  77.3509 0000711 106.8783 253.2313 15.69709134123521

JSON: /api/v1/satellites/59426 · /tle

For live sub-satellite position, see the globe view (requires WebGL).

§ Visibility from observer

Set your observer location to see the next 7 days of passes ≥ 10°. The values pass through the URL so the page stays shareable.

No JS? Fill the form by hand. The geolocation button needs JavaScript.